KG6SIB Weather Reports


Display with metric or nautical units.
time (UTC)temp
F
wind
direction
speed
MPH
gust
MPH
rain 1hr
in
rain 24hr
in
rain mn
in
humidity
%
barometer
mb
20260831053748 62 70 4.0 6.0 0.00 0.00 0.00 42 1016.4
20260831053236 62 52 2.0 6.0 0.00 0.00 0.00 42 1016.3
20260831052747 62 51 5.0 7.0 0.00 0.00 0.00 43 1016.3
20260831052247 62 43 4.0 7.0 0.00 0.00 0.00 43 1016.3
20260831051747 62 39 4.0 6.0 0.00 0.00 0.00 43 1016.3
20260831051247 62 39 5.0 5.0 0.00 0.00 0.00 44 1016.3
20260831050247 62 55 2.0 5.0 0.00 0.00 0.00 44 1016.3
20260831045747 62 52 3.0 5.0 0.00 0.00 0.00 45 1016.1
20260831045247 63 66 3.0 5.0 0.00 0.00 0.00 45 1016.1
20260831044747 63 63 2.0 5.0 0.00 0.00 0.00 45 1016.0
20260831044247 63 53 3.0 5.0 0.00 0.00 0.00 46 1015.9
20260831043236 63 33 3.0 6.0 0.00 0.00 0.00 46 1015.9
20260831042246 64 71 4.0 7.0 0.00 0.00 0.00 46 1016.3
20260831041747 64 68 4.0 7.0 0.00 0.00 0.00 47 1016.3
20260831041246 64 66 2.0 7.0 0.00 0.00 0.00 48 1016.3
20260831040746 65 76 4.0 7.0 0.00 0.00 0.00 49 1016.3
20260831040246 65 76 3.0 7.0 0.00 0.00 0.00 50 1016.3
20260831035746 65 53 3.0 7.0 0.00 0.00 0.00 50 1015.9
20260831034246 65 76 5.0 7.0 0.00 0.00 0.00 51 1015.6
20260831033746 66 65 2.0 5.0 0.00 0.00 0.00 49 1015.6
20260831032746 67 59 2.0 5.0 0.00 0.00 0.00 48 1015.8
20260831031746 67 61 4.0 6.0 0.00 0.00 0.00 48 1015.6
20260831031245 68 74 4.0 5.0 0.00 0.00 0.00 48 1015.7
20260831030745 69 71 2.0 5.0 0.00 0.00 0.00 47 1015.9
20260831030245 69 59 4.0 4.0 0.00 0.00 0.00 47 1015.8
20260831025245 70 317 1.0 3.0 0.00 0.00 0.00 45 1014.6
20260831024745 71 253 0.0 3.0 0.00 0.00 0.00 45 1015.0
20260831024245 72 252 0.0 0.0 0.00 0.00 0.00 44 1014.9
20260831023745 73 252 0.0 0.0 0.00 0.00 0.00 43 1015.2
20260831023245 73 252 0.0 0.0 0.00 0.00 0.00 42 1015.0
20260831022745 74 252 0.0 0.0 0.00 0.00 0.00 42 1015.0
20260831022245 75 252 0.0 0.0 0.00 0.00 0.00 41 1015.2
20260831021245 76 252 0.0 0.0 0.00 0.00 0.00 40 1015.1
20260831020745 76 253 0.0 0.0 0.00 0.00 0.00 37 1015.1
20260831020245 77 253 0.0 0.0 0.00 0.00 0.00 37 1015.2
20260831014745 78 253 0.0 5.0 0.00 0.00 0.00 36 1014.1
20260831014245 79 252 3.0 7.0 0.00 0.00 0.00 35 1014.1
20260831013744 79 225 3.0 8.0 0.00 0.00 0.00 35 1014.2
20260831013244 80 249 2.0 8.0 0.00 0.00 0.00 32 1014.2
20260831012744 80 249 4.0 9.0 0.00 0.00 0.00 31 1014.2
20260831012244 81 237 1.0 9.0 0.00 0.00 0.00 30 1014.3
20260831011744 82 244 3.0 9.0 0.00 0.00 0.00 28 1014.3
20260831011244 82 232 0.0 9.0 0.00 0.00 0.00 28 1014.3
20260831010744 83 248 0.0 10.0 0.00 0.00 0.00 27 1014.5
20260831010244 83 254 7.0 10.0 0.00 0.00 0.00 27 1014.5
20260831005744 83 244 2.0 9.0 0.00 0.00 0.00 27 1014.3
20260831005244 83 238 4.0 10.0 0.00 0.00 0.00 26 1014.3
20260831004244 84 261 2.0 11.0 0.00 0.00 0.00 26 1014.3
20260831003744 84 246 9.0 12.0 0.00 0.00 0.00 26 1014.5
20260831003244 85 228 9.0 12.0 0.00 0.00 0.00 25 1014.5
20260831002744 85 250 5.0 12.0 0.00 0.00 0.00 25 1014.5
20260831002244 86 198 3.0 10.0 0.00 0.00 0.00 25 1014.8
20260831001744 86 212 4.0 11.0 0.00 0.00 0.00 24 1014.8
20260831001232 86 241 8.0 12.0 0.00 0.00 0.00 25 1014.8
20260831000243 87 249 9.0 13.0 0.00 0.00 0.00 25 1014.7
20260830235743 89 233 11.0 13.0 0.00 0.00 0.00 24 1015.1
20260830235243 89 238 6.0 12.0 0.00 0.00 0.00 24 1015.0
20260830234743 89 253 10.0 12.0 0.00 0.00 0.00 24 1015.1
20260830234243 89 209 3.0 12.0 0.00 0.00 0.00 23 1015.0
20260830233743 89 215 3.0 12.0 0.00 0.00 0.00 23 1015.1
20260830233243 89 267 2.0 11.0 0.00 0.00 0.00 23 1015.0
20260830232743 90 215 5.0 11.0 0.00 0.00 0.00 22 1015.2
20260830232243 90 269 6.0 12.0 0.00 0.00 0.00 22 1015.2
20260830231743 90 202 8.0 12.0 0.00 0.00 0.00 23 1015.3
20260830231242 90 227 7.0 13.0 0.00 0.00 0.00 23 1015.2
20260830230742 90 230 2.0 13.0 0.00 0.00 0.00 23 1015.2
20260830230243 90 236 6.0 12.0 0.00 0.00 0.00 22 1015.0
20260830225742 90 221 6.0 12.0 0.00 0.00 0.00 23 1015.1
20260830225243 91 242 6.0 13.0 0.00 0.00 0.00 22 1015.3
20260830224743 91 247 3.0 13.0 0.00 0.00 0.00 23 1015.3
20260830224243 91 229 4.0 16.0 0.00 0.00 0.00 23 1015.3
20260830223743 91 223 7.0 16.0 0.00 0.00 0.00 24 1015.3
20260830223243 91 244 7.0 12.0 0.00 0.00 0.00 24 1015.3
20260830222743 90 227 6.0 12.0 0.00 0.00 0.00 25 1015.2
20260830222242 90 209 11.0 12.0 0.00 0.00 0.00 25 1015.1
20260830221242 92 208 8.0 11.0 0.00 0.00 0.00 25 1015.4
20260830220242 91 233 5.0 15.0 0.00 0.00 0.00 26 1015.6
20260830215242 92 264 6.0 11.0 0.00 0.00 0.00 26 1015.6
20260830214742 92 259 9.0 15.0 0.00 0.00 0.00 27 1015.7
20260830214242 92 234 3.0 15.0 0.00 0.00 0.00 28 1015.7
20260830213744 92 188 3.0 13.0 0.00 0.00 0.00 29 1015.8
20260830212241 91 222 5.0 13.0 0.00 0.00 0.00 30 1015.8
20260830211741 91 228 5.0 14.0 0.00 0.00 0.00 32 1015.9
20260830211241 90 277 1.0 16.0 0.00 0.00 0.00 32 1015.8
20260830205741 92 247 8.0 14.0 0.00 0.00 0.00 30 1016.5
20260830205241 92 242 4.0 14.0 0.00 0.00 0.00 30 1016.4
20260830204741 92 240 5.0 13.0 0.00 0.00 0.00 30 1016.5
20260830204241 92 240 3.0 14.0 0.00 0.00 0.00 30 1016.6
20260830203741 93 241 5.0 14.0 0.00 0.00 0.00 30 1016.7
20260830203241 93 190 3.0 14.0 0.00 0.00 0.00 31 1016.7
20260830202740 93 227 6.0 14.0 0.00 0.00 0.00 31 1016.6
20260830202241 92 209 5.0 13.0 0.00 0.00 0.00 31 1016.6
20260830201740 93 229 4.0 13.0 0.00 0.00 0.00 30 1016.7
20260830200741 91 178 2.0 12.0 0.00 0.00 0.00 31 1016.6
20260830195740 91 223 1.0 13.0 0.00 0.00 0.00 30 1016.9
20260830195241 92 225 2.0 15.0 0.00 0.00 0.00 29 1016.9
20260830194740 92 245 2.0 15.0 0.00 0.00 0.00 29 1016.9
20260830194240 92 257 5.0 10.0 0.00 0.00 0.00 29 1016.7
20260830193741 91 238 6.0 12.0 0.00 0.00 0.00 30 1016.8
20260830193240 92 222 7.0 13.0 0.00 0.00 0.00 30 1017.0
20260830192740 92 249 4.0 13.0 0.00 0.00 0.00 29 1016.8
20260830192240 92 296 2.0 12.0 0.00 0.00 0.00 28 1016.8
20260830191740 92 268 3.0 12.0 0.00 0.00 0.00 28 1016.9
20260830191240 91 254 7.0 13.0 0.00 0.00 0.00 29 1017.0
20260830190240 92 298 4.0 12.0 0.00 0.00 0.00 27 1017.1
20260830185740 92 215 1.0 16.0 0.00 0.00 0.00 28 1017.3
20260830185240 91 234 6.0 16.0 0.00 0.00 0.00 28 1017.1
20260830184739 91 249 7.0 11.0 0.00 0.00 0.00 28 1017.2
20260830184240 92 208 11.0 11.0 0.00 0.00 0.00 28 1017.5
20260830183739 91 219 0.0 14.0 0.00 0.00 0.00 28 1017.2
20260830182739 91 221 0.0 15.0 0.00 0.00 0.00 28 1017.2
20260830182239 91 239 9.0 15.0 0.00 0.00 0.00 27 1017.3
20260830181740 91 254 3.0 11.0 0.00 0.00 0.00 27 1017.4
20260830181239 91 234 4.0 12.0 0.00 0.00 0.00 27 1017.5
20260830180739 91 268 3.0 12.0 0.00 0.00 0.00 26 1017.3
20260830180239 91 238 11.0 11.0 0.00 0.00 0.00 26 1017.4
20260830175739 91 192 2.0 7.0 0.00 0.00 0.00 25 1017.3
20260830174739 90 237 1.0 11.0 0.00 0.00 0.00 25 1017.2
20260830174239 90 223 6.0 9.0 0.00 0.00 0.00 25 1017.2
20260830173239 90 207 1.0 9.0 0.00 0.00 0.00 25 1017.0
20260830172739 90 262 2.0 8.0 0.00 0.00 0.00 25 1016.9
20260830172239 89 207 3.0 8.0 0.00 0.00 0.00 26 1016.7
20260830171728 89 255 1.0 8.0 0.00 0.00 0.00 25 1016.7
20260830171238 88 229 3.0 11.0 0.00 0.00 0.00 26 1016.7
20260830170738 88 250 8.0 11.0 0.00 0.00 0.00 26 1016.7
20260830170238 88 244 3.0 10.0 0.00 0.00 0.00 26 1016.7
20260830165738 88 226 2.0 10.0 0.00 0.00 0.00 27 1016.8
20260830164738 88 236 2.0 9.0 0.00 0.00 0.00 27 1016.7
20260830164238 87 248 2.0 8.0 0.00 0.00 0.00 28 1016.6
20260830163738 87 234 5.0 8.0 0.00 0.00 0.00 28 1016.5
20260830163238 86 238 3.0 8.0 0.00 0.00 0.00 30 1016.3
20260830162738 86 243 0.0 10.0 0.00 0.00 0.00 30 1016.3
20260830162237 86 254 4.0 10.0 0.00 0.00 0.00 29 1016.3
20260830161727 86 240 0.0 7.0 0.00 0.00 0.00 30 1016.3
20260830161237 86 285 1.0 8.0 0.00 0.00 0.00 30 1016.3
20260830160737 85 261 0.0 9.0 0.00 0.00 0.00 30 1016.3
20260830160238 85 246 7.0 9.0 0.00 0.00 0.00 31 1016.3
20260830155737 86 250 5.0 7.0 0.00 0.00 0.00 33 1016.8
20260830154737 85 87 0.0 0.0 0.00 0.00 0.00 34 1016.8
20260830154237 84 86 0.0 0.0 0.00 0.00 0.00 35 1016.6
20260830153737 83 82 0.0 0.0 0.00 0.00 0.00 36 1016.6
20260830153237 82 82 0.0 0.0 0.00 0.00 0.00 36 1016.4
20260830152737 82 82 0.0 0.0 0.00 0.00 0.00 36 1016.3
20260830152237 81 82 0.0 0.0 0.00 0.00 0.00 37 1016.2
20260830151737 80 82 0.0 3.0 0.00 0.00 0.00 39 1016.2
20260830151237 79 82 0.0 4.0 0.00 0.00 0.00 42 1016.2
20260830150237 75 83 2.0 5.0 0.00 0.00 0.00 47 1015.7
20260830145737 73 82 2.0 6.0 0.00 0.00 0.00 49 1016.1
20260830144737 71 90 4.0 5.0 0.00 0.00 0.00 52 1016.0
20260830144237 69 71 1.0 4.0 0.00 0.00 0.00 53 1015.8
20260830143737 68 78 2.0 5.0 0.00 0.00 0.00 55 1015.5
20260830143236 67 93 3.0 7.0 0.00 0.00 0.00 56 1015.6
20260830142736 66 83 3.0 7.0 0.00 0.00 0.00 57 1015.3
20260830142237 65 75 4.0 7.0 0.00 0.00 0.00 58 1015.3
20260830141737 65 82 5.0 7.0 0.00 0.00 0.00 59 1015.3
20260830141236 64 76 5.0 6.0 0.00 0.00 0.00 60 1015.0
20260830140736 63 65 4.0 6.0 0.00 0.00 0.00 61 1015.0
20260830140236 63 55 3.0 6.0 0.00 0.00 0.00 61 1015.0
20260830135225 62 58 4.0 7.0 0.00 0.00 0.00 61 1015.1
20260830133736 62 51 4.0 7.0 0.00 0.00 0.00 63 1015.0
20260830132736 62 62 5.0 7.0 0.00 0.00 0.00 63 1014.7
20260830132235 62 58 4.0 7.0 0.00 0.00 0.00 63 1014.7
20260830131235 62 81 3.0 7.0 0.00 0.00 0.00 63 1014.7
20260830130235 62 81 3.0 8.0 0.00 0.00 0.00 64 1014.7
20260830125736 62 80 7.0 8.0 0.00 0.00 0.00 64 1015.4
20260830125236 62 73 4.0 8.0 0.00 0.00 0.00 64 1015.3
20260830124735 62 40 5.0 8.0 0.00 0.00 0.00 64 1015.3
20260830124235 62 59 2.0 6.0 0.00 0.00 0.00 64 1015.4
20260830123235 62 54 4.0 7.0 0.00 0.00 0.00 65 1015.4
20260830122724 61 67 4.0 6.0 0.00 0.00 0.00 65 1015.3
20260830122235 61 63 3.0 7.0 0.00 0.00 0.00 65 1015.5
20260830121235 62 51 4.0 8.0 0.00 0.00 0.00 64 1015.3
20260830120735 62 59 4.0 8.0 0.00 0.00 0.00 64 1015.3
20260830120234 62 48 4.0 8.0 0.00 0.00 0.00 64 1015.3
20260830115735 62 74 4.0 8.0 0.00 0.00 0.00 64 1015.7
20260830115235 62 61 5.0 8.0 0.00 0.00 0.00 64 1015.7
20260830114735 62 30 4.0 6.0 0.00 0.00 0.00 64 1015.8
20260830114234 62 46 3.0 6.0 0.00 0.00 0.00 64 1015.7
20260830113734 62 39 3.0 5.0 0.00 0.00 0.00 64 1015.6
20260830113234 62 55 4.0 5.0 0.00 0.00 0.00 64 1015.7
20260830112234 61 60 4.0 7.0 0.00 0.00 0.00 65 1015.7
20260830111734 62 58 3.0 7.0 0.00 0.00 0.00 65 1015.7
20260830110734 61 34 4.0 7.0 0.00 0.00 0.00 65 1015.7
20260830105734 61 59 3.0 7.0 0.00 0.00 0.00 65 1016.1
20260830105223 62 54 4.0 6.0 0.00 0.00 0.00 65 1016.1
20260830104734 62 69 3.0 7.0 0.00 0.00 0.00 65 1016.1
20260830103734 62 70 4.0 8.0 0.00 0.00 0.00 65 1016.0
20260830103234 62 66 4.0 7.0 0.00 0.00 0.00 65 1016.0
20260830102234 62 53 5.0 8.0 0.00 0.00 0.00 65 1016.1
20260830101733 62 65 6.0 8.0 0.00 0.00 0.00 65 1016.1
20260830100733 62 58 4.0 8.0 0.00 0.00 0.00 64 1015.9
20260830100234 61 74 5.0 8.0 0.00 0.00 0.00 65 1016.0
20260830095233 61 70 5.0 8.0 0.00 0.00 0.00 65 1015.9
20260830094734 61 51 4.0 8.0 0.00 0.00 0.00 64 1015.9
20260830094233 61 74 3.0 7.0 0.00 0.00 0.00 64 1015.9
20260830093722 62 49 4.0 7.0 0.00 0.00 0.00 63 1016.0
20260830093233 62 88 4.0 7.0 0.00 0.00 0.00 63 1016.0
20260830092733 62 86 5.0 8.0 0.00 0.00 0.00 62 1016.0
20260830092233 62 61 5.0 8.0 0.00 0.00 0.00 63 1016.1
20260830091733 62 77 4.0 7.0 0.00 0.00 0.00 62 1016.0
20260830091233 62 74 7.0 8.0 0.00 0.00 0.00 62 1016.1
20260830090733 62 71 4.0 8.0 0.00 0.00 0.00 63 1016.0
20260830085732 62 70 5.0 6.0 0.00 0.00 0.00 62 1016.2
20260830085232 62 57 2.0 5.0 0.00 0.00 0.00 62 1016.2
20260830084232 63 67 4.0 6.0 0.00 0.00 0.00 61 1016.2
20260830083732 63 65 3.0 6.0 0.00 0.00 0.00 61 1016.2
20260830083232 63 55 3.0 8.0 0.00 0.00 0.00 60 1016.1
20260830082232 63 52 4.0 9.0 0.00 0.00 0.00 60 1016.3
20260830081732 63 95 6.0 9.0 0.00 0.00 0.00 60 1016.3
20260830081232 63 62 4.0 7.0 0.00 0.00 0.00 60 1016.2
20260830080732 63 71 4.0 5.0 0.00 0.00 0.00 60 1016.2
20260830080232 63 82 3.0 5.0 0.00 0.00 0.00 60 1016.1
20260830075731 63 72 4.0 8.0 0.00 0.00 0.00 60 1016.1
20260830075231 63 80 4.0 8.0 0.00 0.00 0.00 60 1016.2
20260830074731 64 74 4.0 7.0 0.00 0.00 0.00 60 1016.2
20260830074232 64 48 4.0 7.0 0.00 0.00 0.00 60 1016.3
20260830073731 64 68 5.0 8.0 0.00 0.00 0.00 59 1016.4
20260830073231 64 65 2.0 8.0 0.00 0.00 0.00 59 1016.4
20260830072731 64 59 5.0 6.0 0.00 0.00 0.00 59 1016.4
20260830071731 64 74 3.0 7.0 0.00 0.00 0.00 59 1016.4
20260830071231 64 63 4.0 7.0 0.00 0.00 0.00 59 1016.3
20260830070731 64 69 3.0 8.0 0.00 0.00 0.00 59 1016.4
20260830065731 64 71 4.0 8.0 0.00 0.00 0.00 59 1016.4
20260830064731 64 81 3.0 8.0 0.00 0.00 0.00 59 1016.4
20260830064231 64 63 4.0 7.0 0.00 0.00 0.00 59 1016.4
20260830063730 64 49 4.0 6.0 0.00 0.00 0.00 60 1016.4
20260830062730 64 73 3.0 5.0 0.00 0.00 0.00 60 1016.5
20260830062231 64 72 3.0 6.0 0.00 0.00 0.00 60 1016.5
20260830061731 65 66 2.0 6.0 0.00 0.00 0.00 60 1016.7
20260830061231 65 52 3.0 6.0 0.00 0.00 0.00 60 1016.7
20260830060730 65 75 3.0 5.0 0.00 0.00 0.00 60 1016.8
20260830060231 65 67 4.0 8.0 0.00 0.00 0.00 60 1016.7
20260830054230 64 45 4.0 6.0 0.00 0.00 0.00 60 1016.4